SCP
0 0 0 0 0 0 0 0 0 0 0 0 0 0 0 0 0 0 0 0 0 0 0 0 0 0 0 0 0 0 0 0 0 0 0 0 0 0 0 0 0 0 0
0 0 0 0 0 0 0 0 0 0 0 0 0 0 0 0 0 0 0 0 0 0 0 0 0 0 0 0 0 0 0 0 0 0 0 0 0 0 0 0 0 0 0
0 0 0 0 0 0 0 0 0 0 0 0 0 0 0 0 0 0 0 0 0 0 0 0 0 0 0 0 0 0 0 0 0 0 0 0 0 0 0 0 0 0 0
0 0 0 0 0 0 0 0 0 0 0 0 0 0 0 0 0 0 0 0 0 0 0 0 0 0 0 0 0 0 0 0 0 0 0 0 0 0 0 0 0 0 0
0 0 0 0 0 0 0 0 0 0 0 0 0 0 0 0 0 0 0 0 0 0 0 0 0 0 0 0 0 0 0 0 0 0 0 0 0 0 0 0 0 0 0
0 0 0 0 0 0 0 0 0 0 0 0 0 0 0 0 0 0 0 0 0 0 0 0 0 0 0 0 0 0 0 0 0 0 0 0 0 0 0 0 0 0 0
0 0 0 0 0 0 0 0 0 0 0 0 0 0 0 0 0 0 0 0 0 0 0 0 0 0 0 0 0 0 0 0 0 0 0 0 0 0 0 0 0 0 0
0 0 0 0 0 0 0 0 0 0 0 0 0 0 0 0 0 0 0 0 0 0 0 0 0 0 0 0 0 0 0 0 0 0 0 0 0 0 0 0 0 0 0
0 0 0 0 0 0 0 0 0 0 0 0 0 0 0 0 0 0 0 0 0 0 0 0 0 0 0 0 0 0 0 0 0 0 0 0 0 0 0 0 0 0 0
0 0 0 0 0 0 0 0 0 0 0 0 0 0 0 0 0 0 0 0 0 0 0 0 0 0 0 0 0 0 0 0 0 0 0 0 0 0 0 0 0 0 0
0 0 0 0 0 0 0 0 0 0 0 0 0 0 0 0 0 0 0 0 0 0 0 0 0 0 0 0 0 0 0 0 0 0 0 0 0 0 0 0 0 0 0
0 0 0 0 0 0 0 0 0 0 0 0 0 0 0 0 0 0 0 0 0 0 0 0 0 0 0 0 0 0 0 0 0 0 0 0 0 0 0 0 0 0 0
0 0 0 0 0 0 0 0 0 0 0 0 0 0 0 0 0 0 0 0 0 0 0 0 0 0 0 0 0 0 0 0 0 0 0 0 0 0 0 0 0 0 0
0 0 0 0 0 0 0 0 0 0 0 0 0 0 0 0 0 0 0 0 0 0 0 0 0 0 0 0 0 0 0 0 0 0 0 0 0 0 0 0 0 0 0
0 0 0 0 0 0 0 0 0 0 0 0 0 0 0 0 0 0 0 0 0 0 0 0 0 0 0 0 0 0 0 0 0 0 0 0 0 0 0 0 0 0 0
0 0 0 0 0 0 0 0 0 0 0 0 0 0 0 0 0 0 0 0 0 0 0 0 0 0 0 0 0 0 0 0 0 0 0 0 0 0 0 0 0 0 0
0 0 0 0 0 0 0 0 0 0 0 0 0 0 0 0 0 0 0 0 0 0 0 0 0 0 0 0 0 0 0 0 0 0 0 0 0 0 0 0 0 0 0
0 0 0 0 0 0 0 0 0 0 0 0 0 0 0 0 0 0 0 0 0 0 0 0 0 0 0 0 0 0 0 0 0 0 0 0 0 0 0 0 0 0 0
0 0 0 0 0 0 0 0 0 0 0 0 0 0 0 0 0 0 0 0 0 0 0 0 0 0 0 0 0 0 0 0 0 0 0 0 0 0 0 0 0 0 0
0 0 0 0 0 0 0 0 0 0 0 0 0 0 0 0 0 0 0 0 0 0 0 0 0 0 0 0 0 0 0 0 0 0 0 0 0 0 0 0 0 0 0
0 0 0 0 0 0 0 0 0 0 0 0 0 0 0 0 0 0 0 0 0 0 0 0 0 0 0 0 0 0 0 0 0 0 0 0 0 0 0 0 0 0 0
0 0 0 0 0 0 0 0 0 0 0 0 0 0 0 0 0 0 0 0 0 0 0 0 0 0 0 0 0 0 0 0 0 0 0 0 0 0 0 0 0 0 0
0 0 0 0 0 0 0 0 0 0 0 0 0 0 0 0 0 0 0 0 0 0 0 0 0 0 0 0 0 0 0 0 0 0 0 0 0 0 0 0 0 0 0
0 0 0 0 0 0 0 0 0 0 0 0 0 0 0 0 0 0 0 0 0 0 0 0 0 0 0 0 0 0 0 0 0 0 0 0 0 0 0 0 0 0 0
0 0 0 0 0 0 0 0 0 0 0 0 0 0 0 0 0 0 0 0 0 0 0 0 0 0 0 0 0 0 0 0 0 0 0 0 0 0 0 0 0 0 0
0 0 0 0 0 0 0 0 0 0 0 0 0 0 0 0 0 0 0 0 0 0 0 0 0 0 0 0 0 0 0 0 0 0 0 0 0 0 0 0 0 0 0
Wind_Speed
4 3 3 3 3 3 3 4 4 5 5 5 5 6 6 7 6 6 5 14 17 19 20 20 20 20 20 20 20 20 20 20 20 20 19 19 19 19 18 18 17 17 16
4 4 4 3 4 4 4 4 5 5 4 4 5 6 6 6 6 6 6 9 17 20 21 22 22 22 22 21 21 21 21 21 21 21 21 21 21 21 21 20 20 19 19
4 4 3 3 3 3 4 3 4 3 3 3 5 5 5 5 6 7 7 6 7 15 20 22 23 23 23 23 22 22 22 22 22 23 23 23 23 23 23 23 22 22 21
3 3 2 3 3 2 2 2 2 2 3 3 4 4 4 4 6 7 6 6 6 6 12 20 23 23 24 23 23 23 22 22 23 23 24 24 24 24 25 25 24 24 24
1 1 1 2 1 1 1 2 2 2 3 4 4 5 4 5 6 7 7 8 7 7 6 13 20 22 23 23 23 23 23 23 23 23 24 24 25 26 26 26 26 26 26
1 1 0 1 1 1 1 2 2 2 3 4 5 5 5 6 6 6 8 7 6 7 7 7 8 12 20 22 23 23 23 23 23 23 24 24 25 26 26 27 27 27 28
1 0 0 1 1 1 2 2 2 3 3 2 3 4 5 5 5 5 5 5 6 7 6 6 5 5 7 17 21 23 24 24 24 24 24 24 24 25 26 26 27 28 29
1 0 0 1 1 1 2 2 1 2 2 1 1 3 5 5 4 4 4 5 6 5 5 6 5 6 6 5 12 22 23 25 25 25 24 24 24 24 25 26 27 28 29
1 1 1 1 1 1 2 3 2 2 3 2 2 2 3 4 5 4 4 5 4 4 5 5 6 7 7 6 7 14 22 24 25 26 25 25 25 25 25 25 26 27 27
2 1 1 1 1 1 2 3 2 2 2 3 2 3 5 4 5 6 3 4 5 6 7 6 6 7 8 6 10 18 23 24 25 26 26 26 26 26 26 25 25 26 26
3 2 2 1 2 2 3 4 3 3 3 3 3 3 4 4 6 6 9 5 4 5 6 7 7 7 8 8 7 13 23 24 25 26 26 27 27 27 27 26 25 25 25
2 3 2 2 2 3 4 4 4 5 4 5 4 4 4 4 5 6 8 9 8 6 6 6 7 7 8 8 11 20 23 24 25 25 26 26 26 27 27 27 26 25 25
2 3 3 3 3 3 4 4 4 5 5 5 5 5 5 6 5 6 8 11 10 6 5 5 7 7 8 6 8 19 21 24 24 25 25 25 26 26 26 26 26 26 25
2 3 3 4 4 5 5 4 4 5 5 5 6 6 5 5 5 5 6 9 13 8 5 6 4 6 6 6 10 20 13 23 25 25 25 26 26 26 26 26 26 25 25
2 3 4 4 5 5 5 5 4 5 5 5 6 6 5 5 5 5 5 5 7 14 11 5 4 5 6 6 13 10 8 18 25 26 26 26 26 26 26 26 25 25 24
3 4 4 5 5 6 6 5 5 6 6 6 5 6 6 5 5 5 5 5 5 10 14 5 5 6 7 10 16 12 9 23 26 26 27 27 26 27 26 26 26 25 25
3 4 5 5 6 6 6 6 6 7 7 7 7 7 8 7 6 5 5 5 6 7 14 11 5 6 8 10 11 9 10 10 11 24 26 26 26 26 26 26 26 26 26
4 5 5 6 6 7 7 7 8 8 8 9 9 8 9 8 8 6 6 7 7 8 11 16 10 6 8 9 10 11 11 11 8 19 25 25 26 25 25 25 25 25 24
5 5 6 6 7 7 7 8 8 8 8 9 9 9 10 9 9 8 8 8 8 9 9 12 13 8 7 8 9 10 11 9 10 15 20 22 23 24 24 24 24 23 23
6 6 7 7 8 8 8 8 8 8 9 9 9 9 9 9 10 10 9 9 9 10 9 11 11 9 7 7 7 8 8 6 8 9 13 16 19 23 23 24 23 23 22
6 7 7 7 8 7 7 8 8 8 8 9 9 9 10 14 17 15 12 9 9 9 9 10 11 10 8 6 7 6 9 8 8 7 8 8 9 8 10 16 20 21 22
7 7 7 8 8 8 16 21 16 8 7 8 9 9 10 13 16 22 24 23 20 13 11 11 11 12 11 9 8 8 9 10 9 5 6 7 5 7 7 6 16 21 22
7 7 8 8 9 11 20 22 22 14 8 8 9 9 10 11 17 10 17 22 20 23 23 16 14 14 13 10 10 12 11 12 11 5 6 9 6 8 7 10 20 22 22
7 7 8 8 9 12 20 23 23 13 8 8 9 9 11 11 11 14 12 12 11 12 15 12 11 13 13 12 12 13 13 13 11 8 7 9 7 8 8 7 17 22 22
7 7 7 8 9 12 19 23 23 8 7 9 9 10 11 11 18 24 16 12 12 11 16 22 23 22 24 24 18 9 8 9 10 6 5 6 6 6 6 7 11 19 20
8 8 8 8 9 10 17 22 22 7 8 8 8 9 16 18 22 24 14 11 13 11 10 11 13 15 13 14 18 10 7 8 8 6 4 5 5 4 5 4 4 5 7
Wind_Direction
199 203 209 209 215 218 222 231 238 244 248 251 248 245 248 246 246 244 253 264 272 278 281 283 283 282 280 279 277 274 272 270 268 265 264 261 260 258 257 256 255 254 253
198 201 213 216 221 221 222 223 230 236 242 246 253 250 248 249 248 249 245 262 271 277 281 283 283 283 282 281 280 279 277 273 270 268 265 262 260 258 256 255 254 253 253
200 202 210 221 230 230 233 237 244 244 252 254 260 263 261 258 259 259 257 252 262 273 277 281 283 284 284 283 282 282 281 280 277 273 270 267 264 260 257 255 253 252 251
198 199 213 231 239 237 239 248 253 259 263 266 270 272 269 268 266 263 262 259 255 261 272 278 282 283 284 285 285 284 283 283 282 280 277 272 267 264 261 257 254 251 250
168 174 213 241 245 245 259 265 264 256 271 276 275 271 266 264 264 268 267 266 261 258 258 274 279 282 284 285 286 286 285 284 283 283 281 279 275 270 265 262 258 254 251
90 119 212 265 273 279 289 289 283 277 265 273 286 283 272 265 262 262 266 271 269 266 264 265 274 282 284 286 286 286 286 286 285 284 283 281 280 277 273 267 262 258 255
23 75 284 302 310 283 279 284 285 290 288 290 306 300 283 270 267 264 265 272 276 277 275 271 269 267 281 286 288 289 289 289 288 286 284 283 281 280 278 275 270 264 259
346 332 249 283 302 301 307 304 293 293 287 282 274 312 317 320 317 278 270 266 267 277 282 282 281 273 270 273 279 287 289 289 288 287 285 283 281 280 279 278 276 272 267
338 332 292 264 283 257 281 285 273 257 279 288 207 232 290 289 304 277 267 264 275 281 280 283 280 277 273 268 274 285 289 290 289 287 285 283 281 279 278 277 277 276 273
349 339 322 295 289 282 280 278 266 246 246 276 274 228 230 251 282 298 283 278 274 270 268 274 276 275 273 270 272 283 290 291 289 287 285 283 281 279 277 276 276 277 276
353 347 338 332 313 295 284 284 285 269 244 249 255 255 257 253 237 263 286 283 276 257 258 261 264 268 269 265 265 276 287 289 290 289 288 286 284 282 279 278 278 278 280
340 344 337 330 310 298 290 285 280 276 266 261 259 250 249 254 258 256 275 285 282 270 255 252 256 260 262 263 266 280 287 289 289 289 289 288 287 286 282 279 277 277 278
322 318 327 319 308 298 293 290 287 282 275 269 264 260 254 253 256 264 278 289 287 279 256 248 248 255 263 259 265 279 284 288 288 289 289 289 288 287 285 282 278 275 276
280 295 311 309 305 303 302 298 289 281 279 273 274 270 266 263 259 258 267 291 298 291 262 255 253 253 263 264 266 280 279 282 285 287 287 287 287 286 284 283 280 277 275
287 306 312 310 307 304 300 299 287 286 285 276 273 272 267 263 261 259 259 262 282 297 294 261 261 257 264 267 274 277 264 277 284 285 285 285 284 284 283 282 281 279 276
303 312 311 308 304 302 300 297 290 285 284 279 273 272 269 267 263 260 257 256 254 277 288 278 265 262 270 281 284 283 275 283 286 286 285 284 282 281 280 279 278 278 276
296 298 298 300 300 298 296 293 288 287 283 281 281 279 274 270 266 262 257 258 260 264 283 290 268 264 263 268 277 276 275 274 276 282 283 283 282 281 279 277 276 275 274
285 287 291 293 292 292 290 288 287 289 283 283 282 280 277 277 270 265 262 263 266 263 274 288 289 273 262 263 268 270 276 276 269 278 282 283 282 281 280 278 276 275 274
285 288 288 287 287 287 285 282 279 280 277 275 276 275 276 275 275 270 267 269 270 272 268 278 286 280 271 267 269 270 270 270 271 276 280 281 282 282 282 281 280 278 277
282 284 283 281 281 282 282 280 278 275 273 271 270 269 269 267 269 271 273 268 269 271 270 274 281 282 276 265 263 270 276 264 266 271 275 277 278 281 282 283 283 282 282
276 277 280 281 281 283 280 282 279 272 270 272 270 266 266 274 279 283 285 277 273 274 279 282 285 286 282 276 272 269 276 274 264 256 261 264 269 267 271 277 280 281 280
276 277 277 278 281 286 300 306 306 290 278 276 279 276 276 283 286 290 293 294 292 288 286 283 285 283 285 279 277 274 278 280 279 235 243 258 249 256 255 250 266 272 273
274 277 276 275 275 282 299 305 306 304 286 279 278 280 285 284 294 284 286 289 289 288 286 285 284 283 283 279 276 276 271 271 272 260 254 268 254 258 255 261 270 271 272
271 272 275 275 276 284 300 306 308 302 283 276 273 275 277 278 278 283 276 273 271 273 276 277 269 269 270 270 263 267 271 273 269 259 245 265 261 259 260 252 263 267 270
274 272 273 275 276 284 298 305 306 291 281 277 273 274 279 277 283 291 291 285 283 278 283 284 282 284 285 289 288 283 277 279 280 267 225 242 258 262 259 256 259 264 266
273 278 278 274 274 276 291 302 304 289 283 282 276 271 281 287 291 294 291 286 287 286 280 284 286 288 288 286 289 283 276 279 281 277 235 233 252 254 266 253 251 257 265